This is the latest recevied weather packets stored in our database for station/object KF5JED-13. If no packets are shown the sender has not sent any weather packets the latest 10 day(s).
| Time | Temp. | Humidity | Pressure | Rain* | Wind** | Luminosity | Snow |
|---|---|---|---|---|---|---|---|
| 1777673444 | 11.11° C | 74% | 1019.9 hPa | 0 mm | - | 146 W/m² | - |
| 1777673142 | 11.11° C | 75% | 1019.6 hPa | 0 mm | - | 157 W/m² | - |
| 1777672838 | 11.11° C | 76% | 1019.7 hPa | 0 mm | - | 173 W/m² | - |
| 1777672534 | 11.11° C | 75% | 1019.8 hPa | 0 mm | - | 173 W/m² | - |
| 1777672230 | 11.11° C | 75% | 1019.9 hPa | 0 mm | - | 165 W/m² | - |
| 1777671926 | 11.11° C | 75% | 1020 hPa | 0 mm | - | 162 W/m² | - |
| 1777671622 | 10.56° C | 74% | 1019.8 hPa | 0 mm | - | 168 W/m² | - |
| 1777671319 | 10.56° C | 75% | 1019.8 hPa | 0 mm | - | 170 W/m² | - |
| 1777671015 | 10.56° C | 76% | 1020.1 hPa | 0 mm | - | 181 W/m² | - |
| 1777670711 | 10.56° C | 76% | 1019.7 hPa | 0 mm | - | 194 W/m² | - |
| 1777670408 | 10.56° C | 77% | 1019.9 hPa | 0 mm | - | 208 W/m² | - |
| 1777670105 | 10.56° C | 75% | 1019.9 hPa | 0 mm | - | 216 W/m² | - |
| 1777669803 | 11.11° C | 74% | 1019.9 hPa | 0 mm | - | 203 W/m² | - |
| 1777669499 | 11.67° C | 70% | 1019.9 hPa | 0 mm | - | 212 W/m² | - |
| 1777669196 | 11.67° C | 66% | 1020 hPa | 0 mm | - | 240 W/m² | - |
| 1777668892 | 11.67° C | 66% | 1020.2 hPa | 0 mm | - | 243 W/m² | - |
| 1777668590 | 11.67° C | 65% | 1020.1 hPa | 0 mm | - | 251 W/m² | - |
| 1777668285 | 12.22° C | 63% | 1020.1 hPa | 0 mm | - | 237 W/m² | - |
| 1777667982 | 11.67° C | 64% | 1020.2 hPa | 0 mm | - | 266 W/m² | - |
| 1777667679 | 12.22° C | 65% | 1020.2 hPa | 0 mm | - | 321 W/m² | - |
| 1777667377 | 11.67° C | 65% | 1020.1 hPa | 0 mm | - | 322 W/m² | - |
| 1777667073 | 12.22° C | 67% | 1020.4 hPa | 0 mm | - | 314 W/m² | - |
| 1777666770 | 12.22° C | 64% | 1020.5 hPa | 0 mm | - | 318 W/m² | - |
| 1777666467 | 11.67° C | 65% | 1020.5 hPa | 0 mm | - | 344 W/m² | - |
| 1777666164 | 11.67° C | 62% | 1020.2 hPa | 0 mm | - | 305 W/m² | - |
* Rain latest hour (hover to see other rain measurements)
** Current wind speed in m/s (hover to see current wind gust speed)